GW0092 Weather Reports


time (UTC)temp
C
wind
direction
speed
KPH
gust
KPH
rain 1hr
cm
rain 24hr
cm
rain mn
cm
humidity
%
barometer
mb
20260502183059 15 344 6.4 12.9 0.00 0.00 0.00 58 1011.9
20260502181557 14 339 4.8 14.5 0.00 0.00 0.00 59 1012.2
20260502163059 13 343 4.8 14.5 0.00 0.00 0.00 69 1012.9
20260502161556 12 300 4.8 12.9 0.00 0.00 0.00 70 1012.9
20260502151608 12 27 6.4 12.9 0.00 0.00 0.00 71 1013.4
20260502150108 12 316 6.4 11.3 0.00 0.00 0.00 70 1013.2
20260502123056 11 325 3.2 8.0 0.00 0.00 0.00 84 1013.2
20260502121554 11 30 3.2 9.7 0.00 0.00 0.00 85 1013.0
20260502120107 11 315 3.2 9.7 0.00 0.00 0.00 86 1013.1
20260502114600 11 300 3.2 9.7 0.00 0.00 0.00 87 1013.2
20260502113057 11 319 4.8 11.3 0.00 0.00 0.00 88 1013.1
20260502111601 11 326 4.8 8.0 0.00 0.00 0.00 89 1013.0
20260502110057 11 317 4.8 11.3 0.00 0.00 0.00 90 1012.8
20260502104559 10 345 3.2 8.0 0.00 0.00 0.00 92 1012.7
20260502103108 10 347 1.6 3.2 0.00 0.00 0.00 93 1012.5
20260502101554 10 338 0.0 4.8 0.00 0.00 0.00 94 1012.5
20260502100113 9 338 0.0 1.6 0.00 0.00 0.00 95 1012.2
20260502070100 10 0 0.0 0.0 0.00 0.00 0.00 86 1012.2
20260502064607 10 0 0.0 0.0 0.00 0.00 0.00 85 1012.4
20260502063054 10 0 0.0 0.0 0.00 0.00 0.00 84 1012.5
20260502061554 11 0 0.0 1.6 0.00 0.00 0.00 84 1012.6
20260502060059 11 143 0.0 1.6 0.00 0.00 0.00 83 1012.9
20260502054553 11 0 0.0 0.0 0.00 0.00 0.00 83 1013.0
20260502053055 11 131 0.0 3.2 0.00 0.00 0.00 83 1013.4
20260502051622 11 0 0.0 3.2 0.00 0.00 0.00 83 1013.5
20260502050053 11 82 1.6 6.4 0.00 0.00 0.00 83 1013.6
20260502044602 10 75 0.0 3.2 0.00 0.00 0.00 86 1013.8
20260502043050 10 0 0.0 3.2 0.00 0.00 0.00 87 1013.9
20260502041554 10 0 0.0 4.8 0.00 0.00 0.00 88 1013.7
20260502040053 10 152 0.0 4.8 0.00 0.00 0.00 88 1013.5
20260502034550 10 177 0.0 3.2 0.00 0.00 0.00 87 1013.6
20260502033055 10 160 1.6 4.8 0.00 0.00 0.00 86 1012.9
20260502031645 10 84 1.6 6.4 0.00 0.00 0.00 86 1013.0
20260502030053 10 163 0.0 4.8 0.00 0.00 0.00 85 1013.4
20260502024555 10 152 0.0 1.6 0.00 0.00 0.00 85 1013.6
20260502023050 10 0 0.0 3.2 0.00 0.00 0.00 84 1013.9
20260502021555 10 134 1.6 4.8 0.00 0.00 0.00 85 1014.0
20260502020108 10 0 0.0 1.6 0.00 0.00 0.00 84 1013.8
20260502014555 10 0 0.0 3.2 0.00 0.00 0.00 84 1013.7
20260502013102 10 119 1.6 3.2 0.00 0.00 0.00 85 1013.7
20260502011553 10 0 0.0 3.2 0.00 0.00 0.00 84 1013.7
20260502010055 10 156 0.0 3.2 0.00 0.00 0.00 84 1013.8
20260502004554 11 0 0.0 8.0 0.00 0.00 0.00 84 1013.6
20260502003053 11 103 0.0 4.8 0.00 0.00 0.00 85 1013.5
20260502001551 11 143 0.0 3.2 0.00 0.00 0.00 85 1013.2
20260502000058 11 134 0.0 3.2 0.00 0.00 0.00 84 1013.1
20260501234556 11 158 0.0 3.2 0.00 0.00 0.00 83 1013.1
20260501233054 12 149 0.0 8.0 0.00 0.00 0.00 80 1013.3
20260501231600 12 148 1.6 4.8 0.00 0.00 0.00 78 1013.1
20260501230052 13 127 1.6 4.8 0.00 0.00 0.00 75 1012.9
20260501224554 14 141 1.6 6.4 0.00 0.00 0.00 74 1012.7
20260501223054 14 165 3.2 9.7 0.00 0.00 0.00 73 1013.0
20260501221552 15 94 3.2 8.0 0.00 0.00 0.00 71 1013.1
20260501220054 15 179 3.2 9.7 0.00 0.00 0.00 68 1013.3
20260501214602 15 84 4.8 9.7 0.00 0.00 0.00 68 1013.3
20260501213100 15 143 3.2 6.4 0.00 0.00 0.00 66 1013.2
20260501211552 15 156 3.2 9.7 0.00 0.00 0.00 63 1013.1
20260501210053 15 147 3.2 12.9 0.00 0.00 0.00 64 1013.3
20260501204551 15 143 3.2 8.0 0.00 0.00 0.00 66 1013.5
20260501203051 15 236 3.2 9.7 0.00 0.00 0.00 65 1013.5
20260501201553 15 191 4.8 11.3 0.00 0.00 0.00 64 1013.6
20260501200052 15 131 3.2 11.3 0.00 0.00 0.00 64 1013.6
20260501194559 15 143 1.6 12.9 0.00 0.00 0.00 68 1013.9
20260501193052 16 152 3.2 11.3 0.00 0.00 0.00 67 1013.8
20260501191549 15 167 3.2 9.7 0.00 0.00 0.00 65 1014.0
20260501190113 15 122 1.6 9.7 0.00 0.00 0.00 63 1014.0
20260501184553 15 115 4.8 11.3 0.00 0.00 0.00 65 1014.0